TimeEST,TemperatureF,Dew PointF,Humidity,Sea Level PressureIn,VisibilityMPH,Wind Direction,Wind SpeedMPH,Gust SpeedMPH,PrecipitationIn,Events,Conditions,WindDirDegrees,DateUTC
12:51 AM,48.9,33.1,54,30.17,10.0,WSW,6.9,-,N/A,,Clear,250,2011-11-25 05:51:00
1:51 AM,48.2,33.8,58,30.17,10.0,WSW,9.2,-,N/A,,Clear,250,2011-11-25 06:51:00
2:51 AM,48.9,34.0,56,30.17,10.0,West,5.8,-,N/A,,Clear,280,2011-11-25 07:51:00
3:51 AM,48.9,34.0,56,30.15,10.0,West,6.9,-,N/A,,Clear,260,2011-11-25 08:51:00
4:51 AM,48.9,34.0,56,30.15,10.0,WSW,8.1,-,N/A,,Clear,240,2011-11-25 09:51:00
5:51 AM,46.0,34.0,63,30.16,10.0,SSW,5.8,-,N/A,,Clear,200,2011-11-25 10:51:00
6:51 AM,46.0,34.0,63,30.17,10.0,SSW,8.1,-,N/A,,Mostly Cloudy,210,2011-11-25 11:51:00
7:51 AM,48.0,33.1,56,30.19,10.0,WSW,6.9,-,N/A,,Mostly Cloudy,240,2011-11-25 12:51:00
8:51 AM,50.0,33.1,52,30.19,10.0,SW,11.5,-,N/A,,Scattered Clouds,230,2011-11-25 13:51:00
9:51 AM,52.0,33.1,49,30.18,10.0,SW,11.5,-,N/A,,Scattered Clouds,230,2011-11-25 14:51:00
10:51 AM,53.6,33.8,47,30.17,10.0,WSW,9.2,-,N/A,,Scattered Clouds,240,2011-11-25 15:51:00
11:51 AM,55.9,33.1,42,30.14,10.0,WSW,10.4,-,N/A,,Scattered Clouds,240,2011-11-25 16:51:00
12:51 PM,59.0,34.0,39,30.12,10.0,WSW,11.5,-,N/A,,Scattered Clouds,250,2011-11-25 17:51:00
1:51 PM,60.1,33.1,36,30.10,10.0,West,15.0,-,N/A,,Scattered Clouds,270,2011-11-25 18:51:00
2:51 PM,61.0,34.0,36,30.10,10.0,WSW,9.2,-,N/A,,Scattered Clouds,240,2011-11-25 19:51:00
3:51 PM,60.1,35.1,39,30.10,10.0,West,5.8,-,N/A,,Mostly Cloudy,260,2011-11-25 20:51:00
4:51 PM,59.0,35.6,42,30.10,10.0,SW,10.4,-,N/A,,Mostly Cloudy,230,2011-11-25 21:51:00
5:51 PM,57.2,35.6,44,30.11,10.0,SW,11.5,-,N/A,,Mostly Cloudy,230,2011-11-25 22:51:00
6:51 PM,57.0,36.0,45,30.12,10.0,SW,12.7,-,N/A,,Mostly Cloudy,220,2011-11-25 23:51:00
7:51 PM,55.9,35.1,45,30.12,10.0,SW,9.2,-,N/A,,Scattered Clouds,220,2011-11-26 00:51:00
8:51 PM,55.9,35.1,45,30.12,10.0,SW,11.5,-,N/A,,Scattered Clouds,230,2011-11-26 01:51:00
9:51 PM,54.0,35.1,49,30.13,10.0,SW,10.4,-,N/A,,Partly Cloudy,230,2011-11-26 02:51:00
10:51 PM,53.1,34.0,48,30.13,10.0,SW,6.9,-,N/A,,Partly Cloudy,220,2011-11-26 03:51:00
11:51 PM,52.0,34.0,50,30.14,10.0,SW,8.1,-,N/A,,Partly Cloudy,220,2011-11-26 04:51:00